Regional Weather Roundup
Issued by NWS

Home | Current Version | Previous Version | Graphics & Text | Print | Product List | Glossary On
Versions: 1 2 3 4 5 6 7 8 9 10 11 12 13 14 15 16 17 18 19 20 21 22 23 24 25 26 27 28 29 30 31 32 33 34 35 36 37 38 39 40 41 42 43 44 45 46 47 48 49 50
758
ASUS43 KLSX 072007
RWRMO

WEATHER SUMMARY FOR MISSOURI
NATIONAL WEATHER SERVICE SPRINGFIELD MO
200 PM CST SUN FEB 07 2016

NOTE: "FAIR" INDICATES FEW OR NO CLOUDS BELOW 12,000 FEET WITH NO
       SIGNIFICANT WEATHER AND/OR OBSTRUCTIONS TO VISIBILITY.
       CURRENT SKY AND/OR WEATHER CONDITIONS ARE NOT AVAILABLE FOR
       CHILLICOTHE AND FARMINGTON.

MOZ001>031-035>038-043-044-053-054-072100-
...NORTHERN AND WESTERN MISSOURI...

CITY           SKY/WX    TMP DP  RH WIND       PRES   REMARKS
KANSAS CTY INT CLOUDY    50  27  40 NW15G28   30.01F
KANSAS C DTWN  PTSUNNY   52  24  33 NW18G26   30.00F
LEE`S SUMMIT   CLOUDY    50  22  33 NW20G28   30.00F
ST JOSEPH      CLOUDY    50  26  39 NW28G36   30.00F
CHILLICOTHE      N/A     53  27  36 W13G26    29.94F
KIRKSVILLE     LGT RAIN  50  21  32 NW16G28   29.89F

$$
MOZ066>068-077>081-088>096-101>105-072100-
...SOUTHWEST MISSOURI...

CITY           SKY/WX    TMP DP  RH WIND       PRES   REMARKS
SPRINGFIELD    MOSUNNY   50  28  42 W17G24    30.02F
JOPLIN         MOSUNNY   50  29  44 W10G18    30.08F

$$
MOZ032>034-039>042-045>050-055>058-069>072-072100-
...CENTRAL MISSOURI...

CITY           SKY/WX    TMP DP  RH WIND       PRES   REMARKS
COLUMBIA       SUNNY     52  29  41 W22G29    29.93F
JEFFERSON CITY MOSUNNY   52  29  41 NW17      29.94F
ROLLA          MOSUNNY   50  29  44 W16G24    29.92F
SEDALIA        PTSUNNY   51  29  42 W20G25    29.99S
WHITEMAN AFB   PTSUNNY   50  21  32 NW17G24   29.97F
WARRENSBURG    MOSUNNY   50  21  32 W16G22    30.00S
OSAGE BEACH    SUNNY     52  28  40 W10G17    29.98F

$$
MOZ051-052-059>065-072100-
...EAST CENTRAL MISSOURI...

CITY           SKY/WX    TMP DP  RH WIND       PRES   REMARKS
ST LOUIS INTL  CLOUDY    53  28  38 W14       29.89F
SPIRIT OF STL  CLOUDY    52  30  43 W16       29.89F
ST CHARLES     CLOUDY    50  30  46 W17       29.89F

$$
MOZ072>076-082>087-097>100-106>115-072100-
...SOUTH CENTRAL AND SOUTHEAST MISSOURI...

CITY           SKY/WX    TMP DP  RH WIND       PRES   REMARKS
CAPE GIRARDEAU MOSUNNY   56  28  34 SW21      29.93F
FARMINGTON     PTSUNNY   53  27  36 W13G23    29.93S
POPLAR BLUFF   MOSUNNY   55  32  41 SW16G24   29.95F
WEST PLAINS    CLOUDY    52  25  35 W14       29.98F

$$



USA.gov is the U.S. government's official web portal to all federal, state and local government web resources and services.